Destin, Florida, United States (32540)
Lat: 30.39N, Lon: 86.5W
Wx Zone: FLZ006
Local Info
Past Weather Observations for Saturday, September 20, 2014

NOTE: This archive is for the closest National Weather Service station to Destin. Information may differ from the station used for current weather conditions.

Click here for Long-term Archive

Time Weather Temperature Dewpoint Humidity Pressure Winds Precip Visibility
23:53
Clear
75°F / 24°C 70°F / 21°C 83% 29.98 in
(1015 mb)
NE 3.5 mph
(NE 6 kph)
- 10SM
22:53
Clear
75°F / 24°C 70°F / 21°C 83% 29.98 in
(1015 mb)
NE 4.6 mph
(NE 7 kph)
- 10SM
21:53
Clear
77°F / 25°C 70°F / 21°C 79% 30.01 in
(1016 mb)
NE 4.6 mph
(NE 7 kph)
- 10SM
20:53
Clear
79°F / 26°C 70°F / 21°C 74% 30.01 in
(1016 mb)
NE 4.6 mph
(NE 7 kph)
- 10SM
19:53
Clear
79°F / 26°C 70°F / 21°C 74% 29.98 in
(1015 mb)
ENE 4.6 mph
(ENE 7 kph)
- 10SM
18:53
Clear
79°F / 26°C 68°F / 20°C 70% 29.95 in
(1014 mb)
NE 8.1 mph
(NE 13 kph)
- 10SM
17:53
Clear
81°F / 27°C 66°F / 19°C 62% 29.95 in
(1014 mb)
ENE 5.8 mph
(ENE 9 kph)
- 10SM
16:53
Partly Cloudy
81°F / 27°C 68°F / 20°C 66% 29.95 in
(1014 mb)
ENE 8.1 mph
(ENE 13 kph)
- 10SM
15:53
Clear
84°F / 29°C 70°F / 21°C 62% 29.95 in
(1014 mb)
E 9.2 mph
(E 15 kph)
- 10SM
14:53
Mostly Cloudy
82°F / 28°C 68°F / 20°C 62% 29.95 in
(1014 mb)
E 10.4 mph
(E 17 kph)
- 10SM
13:53
Partly Cloudy
82°F / 28°C 70°F / 21°C 66% 29.98 in
(1015 mb)
ENE 6.9 mph
(ENE 11 kph)
- 10SM
12:53
Partly Cloudy
82°F / 28°C 70°F / 21°C 66% 29.98 in
(1015 mb)
NE 8.1 mph
(NE 13 kph)
- 10SM
12:23
Mostly Cloudy
81°F / 27°C 70°F / 21°C 70% 30.01 in
(1016 mb)
ENE 9.2 mph
(ENE 15 kph)
- 10SM
11:53
Mostly Cloudy
81°F / 27°C 70°F / 21°C 70% 30.01 in
(1016 mb)
NE 10.4 mph
(NE 17 kph)
- 10SM
11:05
Overcast
77°F / 25°C 70°F / 21°C 79% 30.04 in
(1017 mb)
NE 9.2 mph
(NE 15 kph)
- 10SM
10:53
Overcast
77°F / 25°C 70°F / 21°C 79% 30.04 in
(1017 mb)
NE 8.1 mph
(NE 13 kph)
- 10SM
10:26
Overcast
75°F / 24°C 70°F / 21°C 83% 30.04 in
(1017 mb)
ENE 10.4 mph
(ENE 17 kph)
- 10SM
09:53
Overcast
75°F / 24°C 70°F / 21°C 83% 30.04 in
(1017 mb)
NE 10.4 mph
(NE 17 kph)
- 10SM
08:53
Overcast
75°F / 24°C 70°F / 21°C 83% 30.04 in
(1017 mb)
NE 10.4 mph
(NE 17 kph)
- 10SM
08:33
Overcast
75°F / 24°C 70°F / 21°C 83% 30.04 in
(1017 mb)
NE 10.4 mph
(NE 17 kph)
- 10SM
07:53
Overcast
73°F / 23°C 70°F / 21°C 89% 30.01 in
(1016 mb)
NE 11.5 mph
(NE 19 kph)
- 10SM
06:53
Mostly Cloudy
73°F / 23°C 70°F / 21°C 89% 30.01 in
(1016 mb)
ENE 10.4 mph
(ENE 17 kph)
- 10SM
05:53
Mostly Cloudy
73°F / 23°C 70°F / 21°C 89% 30.01 in
(1016 mb)
NE 10.4 mph
(NE 17 kph)
- 10SM
05:48
Mostly Cloudy
73°F / 23°C 70°F / 21°C 89% 30.01 in
(1016 mb)
ENE 8.1 mph
(ENE 13 kph)
- 10SM
05:34
Partly Cloudy
73°F / 23°C 70°F / 21°C 89% 30.01 in
(1016 mb)
ENE 9.2 mph
(ENE 15 kph)
- 10SM
04:53
Clear
73°F / 23°C 70°F / 21°C 89% 29.98 in
(1015 mb)
ENE 10.4 mph
(ENE 17 kph)
- 10SM
03:53
Clear
73°F / 23°C 70°F / 21°C 89% 29.98 in
(1015 mb)
ENE 8.1 mph
(ENE 13 kph)
- 10SM
02:53
Clear
73°F / 23°C 68°F / 20°C 83% 29.98 in
(1015 mb)
ENE 6.9 mph
(ENE 11 kph)
- 10SM
01:53
Clear
73°F / 23°C 70°F / 21°C 89% 29.98 in
(1015 mb)
NE 8.1 mph
(NE 13 kph)
- 10SM
00:53
Clear
75°F / 24°C 70°F / 21°C 83% 29.98 in
(1015 mb)
NE 6.9 mph
(NE 11 kph)
- 10SM
Time Weather Temperature Dewpoint Humidity Pressure Winds Precip Visibility


Weather for websites

WeatherForYou.com, LLC is not responsible for any damages or problems caused by this service. Current weather conditions are obtained from the closest station including government and personal stations which may have varying degrees of accuracy. Weather forecasts are derived from the NOAA NDFD. Like all things, this site belongs to Jesus Christ... He just trusts me to maintain it. If you have any questions or comments email webmaster@weatherforyou.com

Copyright © 2014, WeatherForYou.com LLC. All rights reserved.